Hourly Data Report for October 20, 2014

All times are specified in Local Standard Time (LST). Add 1 hour to adjust for Daylight Saving Time where and when it is observed.

IQALUIT CLIMATE
NUNAVUT

63°44'50.000" N
68°32'40.000" W
33.50 m
2402592
71321
XFB

Download Data

Hourly Data (October 2014)
Hourly Data Report for October 20, 2014
Temp Definition
°C
Dew Point Temp Definition
°C
Rel Hum Definition
%
Wind Dir Definition
10's deg

Wind Spd Definition
km/h
Visibility Definition
km
Stn Press Definition
kPa
Hmdx Definition


Wind Chill Definition


Weather Definition


TIME
00:00 -15.0 -16.9 85 36 9   101.65   -21 LegendNANA
01:00 -14.7 -16.6 86 34 8   101.64   -20 LegendNANA
02:00 -15.2 -17.0 87 35 9   101.66   -21 LegendNANA
03:00 -15.6 -17.6 85 35 8   101.67   -21 LegendNANA
04:00 -14.6 -16.7 84 35 9   101.65   -20 LegendNANA
05:00 -15.1 -17.1 84 35 8   101.64   -20 LegendNANA
06:00 -14.5 -16.3 86 1 6   101.62   -19 LegendNANA
07:00 -14.3 -16.1 86 2 5   101.62   -18 LegendNANA
08:00 -13.0 -14.8 87 36 6   101.63   -17 LegendNANA
09:00 -11.6 -13.0 89 35 8   101.59   -16 LegendNANA
10:00 -9.6 -10.5 93 8 9   101.56   -14 LegendNANA
11:00 -9.3 -10.1 93 6 8   101.49   -14 LegendNANA
12:00 -9.0 -9.8 94 8 6   101.46   -12 LegendNANA
13:00 -9.0 -9.9 93 8 5   101.44   -12 LegendNANA
14:00 -9.1 -9.9 94 5 4   101.41   -11 LegendNANA
15:00 -9.6 -10.5 93 30 5   101.38   -12 LegendNANA
16:00 -10.0 -10.9 93 32 1   101.34   -11 LegendNANA
17:00 -10.8 -11.7 93 33 9   101.33   -16 LegendNANA
18:00 -10.5 -11.5 93 30 6   101.28   -14 LegendNANA
19:00 -9.5 -10.3 94 34 6   101.24   -13 LegendNANA
20:00 -9.9 -10.9 93 33 9   101.18   -15 LegendNANA
21:00 -11.7 -12.7 92 36 7   101.10   -16 LegendNANA
22:00 -10.5 -11.5 93 35 3   101.03   -12 LegendNANA
23:00 -10.2 -11.1 92 33 4   100.98   -13 LegendNANA

Notes on Data Quality.

Legend

  • E = Estimated
  • M = Missing
  • NA = Not Available
  • ‡ = Partner data that is not subject to review by the National Climate Archives
Date modified: